Location: Staunton
(38.1490°N, 79.0720°W)
Time: 14:24:49
(UTC-04:00)

ISS - Pass Details

Date: 23 May 2017
Orbit: 402 x 408 km, 51.6° (Epoch: 29 May)

Event Time Altitude Azimuth Distance (km) Brightness Sun altitude
Rises 22:52:34 0° 250° (WSW) 2,322 0.2 -22.5°
Reaches altitude 10° 22:54:46 10° 260° (W) 1,464 -0.7 -22.7°
Maximum altitude 22:57:48 34° 327° (NNW) 691 -2.1 -23.0°
Drops below altitude 10° 23:00:51 10° 35° (NE) 1,468 -0.8 -23.4°
Sets 23:03:03 0° 45° (NE) 2,329 0.2 -23.6°
